Asheboro, NC

1:16 AM EST on December 11, 2017 (GMT -0500)
Asheboro Municipal

Weather History for KHBI - January, 2013

Change the Weather History Date:

Sunday, January 20, 2013

  Actual Average Record
Temperature  
Mean Temperature 48 °F -  
Max Temperature 62 °F 47 °F 71 °F (1951)
Min Temperature 35 °F 28 °F 2 °F (1985)
Degree Days  
Heating Degree Days 16    
Moisture  
Dew Point 30 °F    
Average Humidity 53    
Maximum Humidity 81    
Minimum Humidity 27    
Precipitation  
Precipitation 0.00 in - - ()
Sea Level Pressure  
Sea Level Pressure 30.10 in    
Wind  
Wind Speed 5 mph (SW)    
Max Wind Speed 13 mph    
Max Gust Speed 18 mph    
Visibility 10 miles    
Events      
Averages and records for this station are not official NWS values.
T = Trace of Precipitation, MM = Missing Value Source: NWS Daily Summary

Daily Weather History Graph

Daily Weather History Graph

Search for Another Location

Airport or City:

Trip Planner

Search our weather history database for the weather conditions in past years. The results will help you decide how hot, cold, wet, or windy it might be!

Date:

Astronomy

Jan. 20, 2013 Rise Set
Actual Time 7:26 AM EST 5:35 PM EST
Civil Twilight 6:59 AM EST 6:02 PM EST
Nautical Twilight 6:28 AM EST 6:33 PM EST
Astronomical Twilight 5:57 AM EST 7:04 PM EST
Moon 12:34 PM EST (1/20) 1:58 AM EST (1/20)
Length of Visible Light 11h 03m
Length of Day
10h 08m
Waxing Gibbous, 66% of the Moon is Illuminated
Jan 20
Waxing Gibbous
Jan 26
Full
Feb 3
Last Quarter
Feb 10
New
Feb 17
First Quarter

Hourly Weather History & Observations

Time (EST) Temp. Windchill Dew Point Humidity Pressure Visibility Wind Dir Wind Speed Gust Speed Precip Events Conditions
12:20 AM 42.8 °F 38.6 °F 30.2 °F 61% 30.18 in 10.0 mi SSW 6.9 mph - N/A   Clear
12:37 AM 41.0 °F 36.4 °F 30.2 °F 65% 30.17 in 10.0 mi SSW 6.9 mph - N/A   Clear
12:57 AM 42.8 °F 38.6 °F 30.2 °F 61% 30.17 in 10.0 mi SSW 6.9 mph - N/A   Clear
1:17 AM 41.0 °F 37.1 °F 30.2 °F 65% 30.16 in 10.0 mi SSW 5.8 mph - N/A   Clear
1:57 AM 42.8 °F 38.6 °F 28.4 °F 57% 30.15 in 10.0 mi SSW 6.9 mph - N/A   Clear
2:17 AM 42.8 °F 39.3 °F 28.4 °F 57% 30.15 in 10.0 mi SSW 5.8 mph - N/A   Clear
2:37 AM 41.0 °F 37.1 °F 28.4 °F 61% 30.14 in 10.0 mi SSW 5.8 mph - N/A   Clear
2:57 AM 42.8 °F 38.6 °F 28.4 °F 57% 30.14 in 10.0 mi SSW 6.9 mph - N/A   Clear
3:17 AM 42.8 °F 38.6 °F 28.4 °F 57% 30.14 in 10.0 mi SSW 6.9 mph - N/A   Clear
3:37 AM 42.8 °F 39.3 °F 28.4 °F 57% 30.14 in 10.0 mi SSW 5.8 mph - N/A   Clear
3:57 AM 42.8 °F 38.6 °F 28.4 °F 57% 30.13 in 10.0 mi SSW 6.9 mph - N/A   Clear
4:17 AM 41.0 °F 35.8 °F 28.4 °F 61% 30.12 in 10.0 mi South 8.1 mph - N/A   Clear
4:37 AM 41.0 °F 38.0 °F 28.4 °F 61% 30.12 in 10.0 mi SSW 4.6 mph - N/A   Clear
4:57 AM 39.2 °F 35.9 °F 28.4 °F 65% 30.12 in 10.0 mi SSW 4.6 mph - N/A   Clear
5:17 AM 39.2 °F 35.0 °F 28.4 °F 65% 30.12 in 10.0 mi SSW 5.8 mph - N/A   Clear
5:37 AM 39.2 °F 35.9 °F 28.4 °F 65% 30.11 in 10.0 mi SSW 4.6 mph - N/A   Clear
5:57 AM 37.4 °F - 28.4 °F 70% 30.11 in 10.0 mi Calm Calm - N/A   Clear
6:37 AM 35.6 °F 32.8 °F 30.2 °F 81% 30.12 in 10.0 mi South 3.5 mph - N/A   Clear
7:17 AM 35.6 °F - 28.4 °F 75% 30.12 in 10.0 mi Calm Calm - N/A   Clear
7:37 AM 35.6 °F 32.8 °F 28.4 °F 75% 30.12 in 10.0 mi South 3.5 mph - N/A   Clear
8:17 AM 35.6 °F - 28.4 °F 75% 30.13 in 10.0 mi Calm Calm - N/A   Clear
8:37 AM 39.2 °F 37.0 °F 28.4 °F 65% 30.14 in 10.0 mi SW 3.5 mph - N/A   Clear
8:57 AM 41.0 °F 38.0 °F 28.4 °F 61% 30.14 in 10.0 mi SW 4.6 mph - N/A   Clear
9:37 AM 42.8 °F 39.3 °F 28.4 °F 57% 30.14 in 10.0 mi SSW 5.8 mph - N/A   Clear
9:57 AM 44.6 °F 43.1 °F 28.4 °F 53% 30.14 in 10.0 mi West 3.5 mph - N/A   Clear
10:17 AM 44.6 °F 42.2 °F 28.4 °F 53% 30.14 in 10.0 mi West 4.6 mph - N/A   Clear
10:37 AM 46.4 °F 43.5 °F 28.4 °F 50% 30.14 in 10.0 mi WSW 5.8 mph - N/A   Clear
10:57 AM 46.4 °F 43.5 °F 30.2 °F 53% 30.13 in 10.0 mi WSW 5.8 mph - N/A   Clear
11:17 AM 50.0 °F - 32.0 °F 50% 30.12 in 10.0 mi SW 4.6 mph - N/A   Clear
11:37 AM 51.8 °F - 32.0 °F 47% 30.11 in 10.0 mi SW 5.8 mph - N/A   Clear
11:57 AM 51.8 °F - 30.2 °F 44% 30.10 in 10.0 mi South 5.8 mph - N/A   Clear
12:17 PM 55.4 °F - 30.2 °F 38% 30.08 in 10.0 mi SSW 6.9 mph - N/A   Clear
12:37 PM 57.2 °F - 30.2 °F 36% 30.07 in 10.0 mi SW 5.8 mph - N/A   Clear
12:57 PM 57.2 °F - 30.2 °F 36% 30.06 in 10.0 mi WSW 5.8 mph - N/A   Clear
1:17 PM 60.8 °F - 30.2 °F 31% 30.05 in 10.0 mi WSW 9.2 mph - N/A   Clear
1:37 PM 60.8 °F - 30.2 °F 31% 30.04 in 10.0 mi WSW 9.2 mph 17.3 mph N/A   Clear
2:20 PM 60.8 °F - 30.2 °F 31% 30.04 in 10.0 mi WSW 12.7 mph 16.1 mph N/A   Clear
2:37 PM 60.8 °F - 30.2 °F 31% 30.04 in 10.0 mi West 8.1 mph - N/A   Clear
2:59 PM 60.8 °F - 30.2 °F 31% 30.03 in 10.0 mi West 5.8 mph - N/A   Clear
3:17 PM 60.8 °F - 28.4 °F 29% 30.04 in 10.0 mi West 10.4 mph - N/A   Clear
3:37 PM 62.6 °F - 28.4 °F 27% 30.04 in 10.0 mi WNW 5.8 mph - N/A   Clear
3:57 PM 60.8 °F - 28.4 °F 29% 30.03 in 10.0 mi WSW 11.5 mph 18.4 mph N/A   Clear
4:17 PM 60.8 °F - 28.4 °F 29% 30.04 in 10.0 mi West 6.9 mph 16.1 mph N/A   Clear
4:37 PM 60.8 °F - 28.4 °F 29% 30.04 in 10.0 mi NW 5.8 mph - N/A   Clear
4:59 PM 60.8 °F - 28.4 °F 29% 30.04 in 10.0 mi West 5.8 mph - N/A   Clear
5:17 PM 59.0 °F - 28.4 °F 31% 30.04 in 10.0 mi West 3.5 mph - N/A   Clear
5:37 PM 57.2 °F - 30.2 °F 36% 30.05 in 10.0 mi Calm Calm - N/A   Clear
5:57 PM 51.8 °F - 35.6 °F 54% 30.06 in 10.0 mi Calm Calm - N/A   Clear
6:18 PM 50.0 °F - 33.8 °F 54% 30.07 in 10.0 mi Calm Calm - N/A   Clear
6:37 PM 48.2 °F - 33.8 °F 58% 30.08 in 10.0 mi Calm Calm - N/A   Clear
6:57 PM 46.4 °F - 33.8 °F 62% 30.09 in 10.0 mi Calm Calm - N/A   Clear
7:17 PM 46.4 °F - 35.6 °F 66% 30.09 in 10.0 mi Calm Calm - N/A   Clear
7:37 PM 46.4 °F - 32.0 °F 57% 30.10 in 10.0 mi Calm Calm - N/A   Clear
7:57 PM 46.4 °F - 30.2 °F 53% 30.10 in 10.0 mi Calm Calm - N/A   Clear
8:17 PM 48.2 °F - 28.4 °F 46% 30.10 in 10.0 mi NNW 3.5 mph - N/A   Clear
8:37 PM 50.0 °F - 26.6 °F 40% 30.11 in 10.0 mi NNW 6.9 mph - N/A   Clear
8:59 PM 46.4 °F - 28.4 °F 50% 30.11 in 10.0 mi Calm Calm - N/A   Clear
9:17 PM 44.6 °F - 28.4 °F 53% 30.11 in 10.0 mi Calm Calm - N/A   Clear
9:37 PM 42.8 °F - 28.4 °F 57% 30.11 in 10.0 mi Calm Calm - N/A   Clear
9:59 PM 39.2 °F - 28.4 °F 65% 30.12 in 10.0 mi Calm Calm - N/A   Clear
10:17 PM 41.0 °F - 30.2 °F 65% 30.12 in 10.0 mi Calm Calm - N/A   Clear
10:57 PM 39.2 °F - 28.4 °F 65% 30.12 in 10.0 mi Calm Calm - N/A   Clear
11:17 PM 37.4 °F - 28.4 °F 70% 30.12 in 10.0 mi Calm Calm - N/A   Clear
11:37 PM 37.4 °F - 28.4 °F 70% 30.12 in 10.0 mi Calm Calm - N/A   Clear
11:57 PM 35.6 °F - 28.4 °F 75% 30.12 in 10.0 mi Calm Calm - N/A   Clear